Photometre #247[Polarized_P] Martova AOT

File : 20190923_247.hum

23/09/2019,04:14:53,TEMP=15.9,BA=5.40,STAT.h
23/09/2019,04:18:54,TEMP=15.9,BA=5.40,STAT.h
23/09/2019,04:23:36,TEMP=15.9,BA=5.44,STAT.h
23/09/2019,04:29:12,TEMP=15.9,BA=5.44,STAT.h
23/09/2019,04:35:58,TEMP=15.9,BA=5.60,STAT.h
23/09/2019,04:44:19,TEMP=15.9,BA=5.64,STAT.h
23/09/2019,04:54:56,TEMP=15.9,BA=5.64,STAT.h
23/09/2019,05:00:02,TEMP=15.9,BA=5.64,STAT.h
23/09/2019,05:05:55,TEMP=15.9,BA=5.64,STAT.h
23/09/2019,05:12:32,TEMP=7.4,BA=5.64,STAT.A
23/09/2019,05:19:56,TEMP=7.6,BA=5.64,STAT.A
23/09/2019,05:28:27,TEMP=7.8,BA=5.64,STAT.C
23/09/2019,05:38:20,TEMP=8.2,BA=5.64,STAT.b=16.0
23/09/2019,05:38:56,TEMP=8.2,BA=5.64,STAT.A
23/09/2019,05:50:23,TEMP=8.4,BA=5.64,STAT.A
23/09/2019,06:04:54,TEMP=8.8,BA=5.64,STAT.A
23/09/2019,06:23:05,TEMP=8.9,BA=5.64,STAT.A
23/09/2019,06:25:15,TEMP=9.1,BA=5.64,STAT.F
23/09/2019,06:40:19,TEMP=10.1,BA=5.64,STAT.D
23/09/2019,06:55:16,TEMP=10.3,BA=5.64,STAT.D
23/09/2019,07:10:16,TEMP=11.2,BA=5.64,STAT.D
23/09/2019,07:25:16,TEMP=10.8,BA=5.64,STAT.F
23/09/2019,07:40:16,TEMP=12.4,BA=5.64,STAT.D
23/09/2019,07:55:19,TEMP=12.1,BA=5.64,STAT.D
23/09/2019,08:10:16,TEMP=11.8,BA=5.64,STAT.D
23/09/2019,08:25:16,TEMP=12.6,BA=5.64,STAT.F
23/09/2019,08:40:22,TEMP=13.8,BA=5.64,STAT.D
23/09/2019,08:55:16,TEMP=13.7,BA=5.64,STAT.D
23/09/2019,09:10:18,TEMP=14.3,BA=5.64,STAT.D
23/09/2019,09:25:18,TEMP=14.5,BA=5.64,STAT.E
23/09/2019,09:40:16,TEMP=15.3,BA=5.64,STAT.D
23/09/2019,09:55:19,TEMP=15.4,BA=5.64,STAT.D
23/09/2019,10:10:16,TEMP=16.3,BA=5.64,STAT.D
23/09/2019,10:25:15,TEMP=16.1,BA=5.64,STAT.F
23/09/2019,10:40:17,TEMP=16.6,BA=5.64,STAT.D
23/09/2019,10:55:15,TEMP=16.7,BA=5.64,STAT.D
23/09/2019,11:10:15,TEMP=16.9,BA=5.64,STAT.D
23/09/2019,11:25:16,TEMP=17.1,BA=5.64,STAT.F
23/09/2019,11:40:16,TEMP=17.4,BA=5.64,STAT.D
23/09/2019,11:55:16,TEMP=17.2,BA=5.64,STAT.D
23/09/2019,12:10:16,TEMP=17.6,BA=5.64,STAT.D
23/09/2019,12:25:15,TEMP=18.0,BA=5.64,STAT.F
23/09/2019,12:39:25,TEMP=17.9,BA=5.64,STAT.A
23/09/2019,12:45:39,TEMP=18.0,BA=5.64,STAT.A
23/09/2019,13:00:08,TEMP=16.8,BA=5.64,STAT.A
23/09/2019,13:12:02,TEMP=16.9,BA=5.64,STAT.A
23/09/2019,13:22:06,TEMP=17.0,BA=5.64,STAT.C
23/09/2019,13:36:04,TEMP=16.5,BA=5.64,STAT.A
23/09/2019,13:37:59,TEMP=16.6,BA=5.64,STAT.A
23/09/2019,13:44:27,TEMP=16.2,BA=5.60,STAT.A
23/09/2019,13:50:13,TEMP=16.1,BA=5.64,STAT.A
23/09/2019,13:55:17,TEMP=15.9,BA=5.64,STAT.B
23/09/2019,14:06:39,TEMP=15.4,BA=5.64,STAT.A
23/09/2019,14:14:14,TEMP=15.1,BA=5.60,STAT.A
23/09/2019,14:21:02,TEMP=14.9,BA=5.64,STAT.A
23/09/2019,14:26:36,TEMP=14.8,BA=5.64,STAT.A
23/09/2019,14:31:18,TEMP=14.7,BA=5.64,STAT.A
23/09/2019,14:35:18,TEMP=14.5,BA=5.64,STAT.A